PIMOHWEATHER Station Historical Data
Daily Summary for April 21, 2020 Units:  Metric    English   Both
Daily Weekly Monthly Yearly
  High: Low: Average:
Temperature: 37.0 °C 28.0 °C 32 °C
Dew Point: 26.0 °C 23.0 °C 24.6 °C
Humidity: 77% 53% 66%
Wind Speed: 35km/h 0km/h 10.2km/h
Wind Gust: 40km/h - -
Wind- - SE
Pressure: 1011.9 hPa 1006.4 hPa -
Precipitation: 0.00 mm    
 
 
Tabular Data for April 21, 2020
Time Temperature Dew Point Pressure Wind Wind Speed Wind Gust Humidity Rainfall Rate (Hourly) solar
00:04 29.0 °C 25.0 °C 1010.5 hPa NNE 5 km/h 8 km/h 76% 0.00 mm 0.00 W/m2
00:09 29.0 °C 25.0 °C 1010.5 hPa NNE 5 km/h 8 km/h 77% 0.00 mm 0.00 W/m2
00:14 29.0 °C 25.0 °C 1010.5 hPa NNE 5 km/h 8 km/h 77% 0.00 mm 0.00 W/m2
00:19 29.0 °C 25.0 °C 1010.5 hPa North 5 km/h 8 km/h 77% 0.00 mm 0.00 W/m2
00:24 29.0 °C 25.0 °C 1010.2 hPa WNW 5 km/h 12 km/h 77% 0.00 mm 0.00 W/m2
00:29 29.0 °C 25.0 °C 1010.2 hPa Calm   4 km/h 77% 0.00 mm 0.00 W/m2
00:34 29.0 °C 25.0 °C 1010.2 hPa Calm     77% 0.00 mm 0.00 W/m2
00:39 29.0 °C 25.0 °C 1010.5 hPa Calm     77% 0.00 mm 0.00 W/m2
00:44 29.0 °C 25.0 °C 1009.8 hPa SE 6 km/h 8 km/h 76% 0.00 mm 0.00 W/m2
00:49 29.0 °C 24.0 °C 1010.2 hPa SE 7 km/h 8 km/h 74% 0.00 mm 0.00 W/m2
00:54 29.0 °C 24.0 °C 1010.2 hPa SE 3 km/h 4 km/h 74% 0.00 mm 0.00 W/m2
00:59 29.0 °C 24.0 °C 1009.8 hPa ESE 2 km/h 4 km/h 74% 0.00 mm 0.00 W/m2
01:04 29.0 °C 24.0 °C 1009.8 hPa SE 10 km/h 12 km/h 74% 0.00 mm 0.00 W/m2
01:09 29.0 °C 24.0 °C 1009.8 hPa SE 5 km/h 8 km/h 74% 0.00 mm 0.00 W/m2
01:14 29.0 °C 24.0 °C 1009.8 hPa ESE 4 km/h 8 km/h 74% 0.00 mm 0.00 W/m2
01:19 29.0 °C 24.0 °C 1009.5 hPa SE 6 km/h 8 km/h 74% 0.00 mm 0.00 W/m2
01:24 29.0 °C 24.0 °C 1009.5 hPa SE 5 km/h 8 km/h 73% 0.00 mm 0.00 W/m2
01:29 29.0 °C 24.0 °C 1009.5 hPa ESE 5 km/h 8 km/h 73% 0.00 mm 0.00 W/m2
01:34 29.0 °C 24.0 °C 1009.8 hPa ESE 8 km/h 12 km/h 73% 0.00 mm 0.00 W/m2
01:39 29.0 °C 24.0 °C 1009.5 hPa ESE 6 km/h 8 km/h 73% 0.00 mm 0.00 W/m2
01:44 29.0 °C 24.0 °C 1009.5 hPa ESE 5 km/h 8 km/h 73% 0.00 mm 0.00 W/m2
01:49 29.0 °C 24.0 °C 1009.5 hPa ESE 5 km/h 8 km/h 73% 0.00 mm 0.00 W/m2
01:54 29.0 °C 24.0 °C 1009.5 hPa ESE 5 km/h 8 km/h 73% 0.00 mm 0.00 W/m2
01:59 29.0 °C 24.0 °C 1009.5 hPa South 3 km/h 4 km/h 74% 0.00 mm 0.00 W/m2
02:04 29.0 °C 24.0 °C 1009.5 hPa Calm   4 km/h 74% 0.00 mm 0.00 W/m2
02:09 29.0 °C 24.0 °C 1009.5 hPa ESE 4 km/h 8 km/h 74% 0.00 mm 0.00 W/m2
02:14 29.0 °C 24.0 °C 1009.5 hPa East 3 km/h 4 km/h 74% 0.00 mm 0.00 W/m2
02:19 29.0 °C 24.0 °C 1009.1 hPa ENE 5 km/h 8 km/h 74% 0.00 mm 0.00 W/m2
02:24 29.0 °C 24.0 °C 1009.1 hPa South 1 km/h 4 km/h 74% 0.00 mm 0.00 W/m2
02:29 29.0 °C 24.0 °C 1009.1 hPa ESE 2 km/h 4 km/h 74% 0.00 mm 0.00 W/m2
02:34 29.0 °C 24.0 °C 1009.1 hPa ESE 3 km/h 4 km/h 74% 0.00 mm 0.00 W/m2
02:39 29.0 °C 24.0 °C 1009.1 hPa ESE 5 km/h 8 km/h 74% 0.00 mm 0.00 W/m2
02:44 29.0 °C 23.0 °C 1009.1 hPa ENE 4 km/h 8 km/h 73% 0.00 mm 0.00 W/m2
02:49 29.0 °C 23.0 °C 1009.1 hPa ESE 1 km/h 4 km/h 73% 0.00 mm 0.00 W/m2
02:54 29.0 °C 23.0 °C 1009.1 hPa ESE 4 km/h 4 km/h 74% 0.00 mm 0.00 W/m2
02:59 28.0 °C 23.0 °C 1009.1 hPa Calm     74% 0.00 mm 0.00 W/m2
03:04 28.0 °C 23.0 °C 1009.1 hPa Calm   4 km/h 74% 0.00 mm 0.00 W/m2
03:09 28.0 °C 23.0 °C 1009.1 hPa North 1 km/h 4 km/h 74% 0.00 mm 0.00 W/m2
03:14 28.0 °C 24.0 °C 1009.1 hPa Calm     75% 0.00 mm 0.00 W/m2
03:19 28.0 °C 24.0 °C 1009.1 hPa Calm     75% 0.00 mm 0.00 W/m2
03:24 29.0 °C 24.0 °C 1009.1 hPa Calm     75% 0.00 mm 0.00 W/m2
03:29 28.0 °C 24.0 °C 1009.1 hPa East 1 km/h 4 km/h 75% 0.00 mm 0.00 W/m2
03:34 28.0 °C 24.0 °C 1008.8 hPa Calm   4 km/h 75% 0.00 mm 0.00 W/m2
03:39 28.0 °C 24.0 °C 1009.1 hPa Calm   4 km/h 75% 0.00 mm 0.00 W/m2
03:44 28.0 °C 24.0 °C 1009.1 hPa SE 3 km/h 4 km/h 75% 0.00 mm 0.00 W/m2
03:49 28.0 °C 24.0 °C 1009.1 hPa Calm     75% 0.00 mm 0.00 W/m2
03:54 28.0 °C 24.0 °C 1009.1 hPa SE 1 km/h 4 km/h 75% 0.00 mm 0.00 W/m2
03:59 28.0 °C 24.0 °C 1009.1 hPa Calm     75% 0.00 mm 0.00 W/m2
04:04 28.0 °C 23.0 °C 1009.1 hPa Calm   4 km/h 75% 0.00 mm 0.00 W/m2
04:09 28.0 °C 23.0 °C 1009.1 hPa Calm   4 km/h 74% 0.00 mm 0.00 W/m2
04:14 28.0 °C 23.0 °C 1009.5 hPa ESE 4 km/h 8 km/h 74% 0.00 mm 0.00 W/m2
04:19 28.0 °C 23.0 °C 1009.1 hPa Calm     74% 0.00 mm 0.00 W/m2
04:24 28.0 °C 23.0 °C 1009.1 hPa SE 7 km/h 8 km/h 75% 0.00 mm 0.00 W/m2
04:29 28.0 °C 23.0 °C 1009.5 hPa ESE 5 km/h 8 km/h 75% 0.00 mm 0.00 W/m2
04:34 28.0 °C 23.0 °C 1009.5 hPa SE 6 km/h 8 km/h 75% 0.00 mm 0.00 W/m2
04:39 28.0 °C 23.0 °C 1009.5 hPa ESE 5 km/h 8 km/h 75% 0.00 mm 0.00 W/m2
04:44 28.0 °C 23.0 °C 1009.5 hPa SE 6 km/h 8 km/h 75% 0.00 mm 0.00 W/m2
04:49 28.0 °C 23.0 °C 1009.5 hPa ESE 5 km/h 8 km/h 75% 0.00 mm 0.00 W/m2
04:54 28.0 °C 23.0 °C 1009.5 hPa Calm     75% 0.00 mm 0.00 W/m2
04:59 28.0 °C 23.0 °C 1009.5 hPa SE 6 km/h 8 km/h 75% 0.00 mm 0.00 W/m2
05:04 28.0 °C 23.0 °C 1009.5 hPa SE 9 km/h 12 km/h 75% 0.00 mm 0.00 W/m2
05:09 28.0 °C 23.0 °C 1009.5 hPa SE 7 km/h 12 km/h 74% 0.00 mm 0.00 W/m2
05:14 28.0 °C 23.0 °C 1009.5 hPa SE 4 km/h 4 km/h 74% 0.00 mm 0.00 W/m2
05:19 28.0 °C 23.0 °C 1009.5 hPa Calm     75% 0.00 mm 0.00 W/m2
05:24 28.0 °C 23.0 °C 1009.5 hPa Calm     75% 0.00 mm 0.00 W/m2
05:29 28.0 °C 23.0 °C 1009.8 hPa East 3 km/h 4 km/h 75% 0.00 mm 0.00 W/m2
05:34 28.0 °C 23.0 °C 1009.8 hPa East 1 km/h 4 km/h 75% 0.00 mm 0.00 W/m2
05:39 28.0 °C 23.0 °C 1009.8 hPa Calm     75% 0.00 mm 1.24 W/m2
05:44 28.0 °C 23.0 °C 1010.2 hPa ESE 3 km/h 4 km/h 75% 0.00 mm 5.12 W/m2
05:49 28.0 °C 23.0 °C 1010.5 hPa Calm   4 km/h 75% 0.00 mm 10.32 W/m2
05:54 28.0 °C 23.0 °C 1010.2 hPa Calm     75% 0.00 mm 18.41 W/m2
05:59 28.0 °C 23.0 °C 1010.2 hPa South 1 km/h 4 km/h 75% 0.00 mm 24.43 W/m2
06:04 28.0 °C 23.0 °C 1010.2 hPa Calm     75% 0.00 mm 30.24 W/m2
06:09 28.0 °C 23.0 °C 1010.2 hPa ESE 3 km/h 4 km/h 75% 0.00 mm 34.15 W/m2
06:14 28.0 °C 23.0 °C 1010.5 hPa NE 3 km/h 4 km/h 75% 0.00 mm 38.15 W/m2
06:19 28.0 °C 23.0 °C 1010.5 hPa NNE 1 km/h 4 km/h 74% 0.00 mm 42.77 W/m2
06:24 28.0 °C 23.0 °C 1010.5 hPa ESE 1 km/h 4 km/h 74% 0.00 mm 46.86 W/m2
06:29 29.0 °C 23.0 °C 1010.5 hPa ENE 4 km/h 4 km/h 74% 0.00 mm 94.12 W/m2
06:34 29.0 °C 23.0 °C 1010.8 hPa SSE 2 km/h 4 km/h 73% 0.00 mm 159.30 W/m2
06:39 29.0 °C 24.0 °C 1010.8 hPa NE 7 km/h 8 km/h 73% 0.00 mm 175.28 W/m2
06:44 30.0 °C 24.0 °C 1010.8 hPa ESE 5 km/h 8 km/h 72% 0.00 mm 185.78 W/m2
06:49 30.0 °C 24.0 °C 1010.8 hPa East 3 km/h 4 km/h 70% 0.00 mm 198.64 W/m2
06:54 30.0 °C 24.0 °C 1011.2 hPa ESE 8 km/h 12 km/h 69% 0.00 mm 211.51 W/m2
06:59 30.0 °C 24.0 °C 1011.2 hPa ESE 8 km/h 8 km/h 70% 0.00 mm 217.29 W/m2
07:04 31.0 °C 24.0 °C 1011.2 hPa SE 3 km/h 4 km/h 70% 0.00 mm 228.47 W/m2
07:09 31.0 °C 24.0 °C 1011.2 hPa ESE 6 km/h 8 km/h 68% 0.00 mm 239.09 W/m2
07:14 31.0 °C 24.0 °C 1011.2 hPa SE 9 km/h 12 km/h 68% 0.00 mm 248.02 W/m2
07:19 31.0 °C 24.0 °C 1011.2 hPa East 5 km/h 8 km/h 68% 0.00 mm 258.83 W/m2
07:24 31.0 °C 24.0 °C 1011.2 hPa ESE 5 km/h 8 km/h 67% 0.00 mm 264.51 W/m2
07:29 31.0 °C 24.0 °C 1011.5 hPa East 6 km/h 8 km/h 67% 0.00 mm 276.28 W/m2
07:34 32.0 °C 24.0 °C 1011.5 hPa NE 5 km/h 8 km/h 66% 0.00 mm 285.87 W/m2
07:39 32.0 °C 24.0 °C 1011.5 hPa East 4 km/h 8 km/h 66% 0.00 mm 292.45 W/m2
07:44 32.0 °C 24.0 °C 1011.9 hPa NE 5 km/h 8 km/h 65% 0.00 mm 300.58 W/m2
07:49 32.0 °C 25.0 °C 1011.9 hPa NE 6 km/h 8 km/h 65% 0.00 mm 310.26 W/m2
07:54 32.0 °C 25.0 °C 1011.5 hPa NNE 4 km/h 8 km/h 66% 0.00 mm 318.04 W/m2
07:59 32.0 °C 25.0 °C 1011.5 hPa North 7 km/h 8 km/h 65% 0.00 mm 323.04 W/m2
08:04 32.0 °C 24.0 °C 1011.5 hPa North 12 km/h 16 km/h 67% 0.00 mm 328.13 W/m2
08:09 31.0 °C 24.0 °C 1011.5 hPa North 12 km/h 12 km/h 68% 0.00 mm 330.87 W/m2
08:14 31.0 °C 24.0 °C 1011.5 hPa NNE 8 km/h 12 km/h 67% 0.00 mm 337.45 W/m2
08:19 32.0 °C 24.0 °C 1011.5 hPa NW 9 km/h 12 km/h 67% 0.00 mm 342.24 W/m2
08:24 32.0 °C 25.0 °C 1011.5 hPa NE 6 km/h 8 km/h 66% 0.00 mm 353.13 W/m2
08:29 32.0 °C 25.0 °C 1011.5 hPa North 12 km/h 12 km/h 65% 0.00 mm 355.41 W/m2
08:34 32.0 °C 24.0 °C 1011.5 hPa NE 13 km/h 16 km/h 66% 0.00 mm 358.10 W/m2
08:39 32.0 °C 24.0 °C 1011.5 hPa North 9 km/h 12 km/h 65% 0.00 mm 366.29 W/m2
08:44 32.0 °C 24.0 °C 1011.2 hPa NNW 6 km/h 8 km/h 65% 0.00 mm 373.78 W/m2
08:49 33.0 °C 25.0 °C 1011.2 hPa NNW 8 km/h 8 km/h 64% 0.00 mm 380.44 W/m2
08:54 33.0 °C 25.0 °C 1011.5 hPa NE 6 km/h 8 km/h 62% 0.00 mm 389.51 W/m2
08:59 33.0 °C 25.0 °C 1011.5 hPa NE 12 km/h 16 km/h 63% 0.00 mm 393.77 W/m2
09:04 33.0 °C 25.0 °C 1011.2 hPa NNE 12 km/h 16 km/h 62% 0.00 mm 400.50 W/m2
09:09 33.0 °C 25.0 °C 1011.2 hPa NNE 12 km/h 16 km/h 62% 0.00 mm 402.26 W/m2
09:14 34.0 °C 25.0 °C 1011.2 hPa East 15 km/h 16 km/h 60% 0.00 mm 408.28 W/m2
09:19 33.0 °C 24.0 °C 1011.2 hPa NNE 14 km/h 16 km/h 61% 0.00 mm 408.77 W/m2
09:24 34.0 °C 25.0 °C 1011.2 hPa North 13 km/h 16 km/h 60% 0.00 mm 409.50 W/m2
09:29 34.0 °C 24.0 °C 1011.2 hPa NNE 15 km/h 20 km/h 59% 0.00 mm 420.42 W/m2
09:34 34.0 °C 24.0 °C 1011.2 hPa North 18 km/h 20 km/h 61% 0.00 mm 410.95 W/m2
09:39 34.0 °C 24.0 °C 1011.2 hPa NNE 18 km/h 20 km/h 59% 0.00 mm 421.37 W/m2
09:44 34.0 °C 24.0 °C 1011.2 hPa NNE 15 km/h 16 km/h 59% 0.00 mm 423.50 W/m2
09:49 34.0 °C 24.0 °C 1010.8 hPa NNE 16 km/h 20 km/h 58% 0.00 mm 425.46 W/m2
09:54 34.0 °C 24.0 °C 1010.8 hPa ENE 18 km/h 20 km/h 58% 0.00 mm 432.85 W/m2
09:59 34.0 °C 25.0 °C 1010.8 hPa ENE 10 km/h 12 km/h 58% 0.00 mm 439.50 W/m2
10:04 35.0 °C 25.0 °C 1010.8 hPa SSE 10 km/h 12 km/h 56% 0.00 mm 454.08 W/m2
10:09 35.0 °C 24.0 °C 1010.8 hPa NE 9 km/h 12 km/h 56% 0.00 mm 464.02 W/m2
10:14 35.0 °C 24.0 °C 1010.8 hPa SE 5 km/h 8 km/h 54% 0.00 mm 469.11 W/m2
10:19 35.0 °C 24.0 °C 1010.8 hPa East 5 km/h 8 km/h 53% 0.00 mm 486.80 W/m2
10:24 35.0 °C 25.0 °C 1010.5 hPa NW 10 km/h 12 km/h 59% 0.00 mm 510.46 W/m2
10:29 35.0 °C 26.0 °C 1010.8 hPa South 13 km/h 16 km/h 63% 0.00 mm 519.88 W/m2
10:34 34.0 °C 26.0 °C 1010.8 hPa WNW 13 km/h 16 km/h 66% 0.00 mm 512.61 W/m2
10:39 33.0 °C 26.0 °C 1010.5 hPa South 13 km/h 16 km/h 66% 0.00 mm 526.33 W/m2
10:44 34.0 °C 26.0 °C 1010.5 hPa SSW 10 km/h 16 km/h 66% 0.00 mm 518.16 W/m2
10:49 34.0 °C 26.0 °C 1010.5 hPa WSW 13 km/h 16 km/h 65% 0.00 mm 511.63 W/m2
10:54 34.0 °C 26.0 °C 1010.5 hPa SSE 13 km/h 20 km/h 66% 0.00 mm 473.27 W/m2
10:59 34.0 °C 26.0 °C 1010.2 hPa South 15 km/h 20 km/h 65% 0.00 mm 478.70 W/m2
11:04 34.0 °C 26.0 °C 1010.5 hPa South 13 km/h 16 km/h 63% 0.00 mm 482.17 W/m2
11:09 34.0 °C 26.0 °C 1010.2 hPa WSW 15 km/h 20 km/h 63% 0.00 mm 484.96 W/m2
11:14 34.0 °C 26.0 °C 1010.2 hPa WSW 13 km/h 20 km/h 62% 0.00 mm 482.71 W/m2
11:19 34.0 °C 26.0 °C 1010.2 hPa South 14 km/h 20 km/h 63% 0.00 mm 482.76 W/m2
11:24 34.0 °C 26.0 °C 1010.2 hPa WSW 13 km/h 16 km/h 62% 0.00 mm 489.71 W/m2
11:29 34.0 °C 26.0 °C 1009.8 hPa SW 10 km/h 12 km/h 62% 0.00 mm 492.72 W/m2
11:34 34.0 °C 26.0 °C 1009.8 hPa West 6 km/h 8 km/h 62% 0.00 mm 485.40 W/m2
11:39 35.0 °C 26.0 °C 1009.8 hPa NW 15 km/h 20 km/h 61% 0.00 mm 496.70 W/m2
11:44 35.0 °C 26.0 °C 1009.8 hPa South 8 km/h 12 km/h 62% 0.00 mm 501.26 W/m2
11:49 35.0 °C 26.0 °C 1009.8 hPa SW 13 km/h 16 km/h 61% 0.00 mm 499.49 W/m2
11:54 34.0 °C 26.0 °C 1009.5 hPa South 12 km/h 16 km/h 61% 0.00 mm 500.84 W/m2
11:59 35.0 °C 26.0 °C 1009.1 hPa SSW 9 km/h 12 km/h 61% 0.00 mm 511.09 W/m2
12:04 35.0 °C 26.0 °C 1009.5 hPa South 15 km/h 16 km/h 60% 0.00 mm 517.06 W/m2
12:09 35.0 °C 26.0 °C 1009.5 hPa WSW 10 km/h 12 km/h 60% 0.00 mm 522.40 W/m2
12:14 35.0 °C 26.0 °C 1009.1 hPa SSW 12 km/h 16 km/h 61% 0.00 mm 528.22 W/m2
12:19 36.0 °C 26.0 °C 1009.1 hPa South 8 km/h 12 km/h 60% 0.00 mm 527.68 W/m2
12:24 35.0 °C 26.0 °C 1009.1 hPa WSW 12 km/h 16 km/h 60% 0.00 mm 526.09 W/m2
12:29 36.0 °C 26.0 °C 1008.8 hPa SSW 13 km/h 16 km/h 59% 0.00 mm 523.86 W/m2
12:34 36.0 °C 26.0 °C 1008.8 hPa SSW 14 km/h 16 km/h 59% 0.00 mm 527.80 W/m2
12:39 36.0 °C 26.0 °C 1008.8 hPa South 10 km/h 16 km/h 58% 0.00 mm 517.50 W/m2
12:44 36.0 °C 26.0 °C 1008.5 hPa SSW 8 km/h 12 km/h 58% 0.00 mm 523.72 W/m2
12:49 36.0 °C 26.0 °C 1008.5 hPa SSW 14 km/h 16 km/h 59% 0.00 mm 518.99 W/m2
12:54 35.0 °C 26.0 °C 1008.5 hPa SSW 10 km/h 16 km/h 60% 0.00 mm 525.14 W/m2
12:59 35.0 °C 26.0 °C 1008.5 hPa SW 10 km/h 16 km/h 59% 0.00 mm 536.32 W/m2
13:04 36.0 °C 26.0 °C 1008.5 hPa South 16 km/h 20 km/h 60% 0.00 mm 558.80 W/m2
13:09 36.0 °C 26.0 °C 1008.1 hPa South 11 km/h 16 km/h 59% 0.00 mm 529.10 W/m2
13:14 36.0 °C 26.0 °C 1007.8 hPa SSW 15 km/h 20 km/h 59% 0.00 mm 533.31 W/m2
13:19 36.0 °C 26.0 °C 1007.5 hPa WSW 14 km/h 16 km/h 58% 0.00 mm 517.01 W/m2
13:24 36.0 °C 26.0 °C 1007.5 hPa SSW 18 km/h 20 km/h 61% 0.00 mm 512.73 W/m2
13:29 36.0 °C 26.0 °C 1007.5 hPa WNW 14 km/h 16 km/h 60% 0.00 mm 524.30 W/m2
13:34 36.0 °C 26.0 °C 1007.5 hPa SSW 15 km/h 16 km/h 58% 0.00 mm 514.84 W/m2
13:39 36.0 °C 26.0 °C 1007.1 hPa South 17 km/h 20 km/h 57% 0.00 mm 517.97 W/m2
13:44 36.0 °C 25.0 °C 1007.1 hPa SSE 16 km/h 20 km/h 55% 0.00 mm 512.78 W/m2
13:49 36.0 °C 25.0 °C 1006.8 hPa SE 21 km/h 24 km/h 54% 0.00 mm 525.36 W/m2
13:54 36.0 °C 25.0 °C 1006.8 hPa SE 27 km/h 32 km/h 55% 0.00 mm 508.11 W/m2
13:59 37.0 °C 26.0 °C 1006.8 hPa SSE 21 km/h 28 km/h 56% 0.00 mm 499.08 W/m2
14:04 37.0 °C 25.0 °C 1006.8 hPa SE 18 km/h 24 km/h 54% 0.00 mm 501.50 W/m2
14:09 36.0 °C 25.0 °C 1006.8 hPa SE 20 km/h 24 km/h 54% 0.00 mm 498.54 W/m2
14:14 37.0 °C 25.0 °C 1006.8 hPa SE 25 km/h 28 km/h 55% 0.00 mm 497.66 W/m2
14:19 36.0 °C 25.0 °C 1006.8 hPa SE 26 km/h 32 km/h 55% 0.00 mm 495.68 W/m2
14:24 37.0 °C 25.0 °C 1006.8 hPa ESE 15 km/h 16 km/h 53% 0.00 mm 501.70 W/m2
14:29 37.0 °C 26.0 °C 1006.8 hPa ESE 19 km/h 28 km/h 53% 0.00 mm 499.22 W/m2
14:34 37.0 °C 25.0 °C 1006.8 hPa ESE 23 km/h 28 km/h 53% 0.00 mm 497.17 W/m2
14:39 36.0 °C 25.0 °C 1006.8 hPa SE 32 km/h 36 km/h 55% 0.00 mm 496.51 W/m2
14:44 36.0 °C 25.0 °C 1006.8 hPa SE 35 km/h 40 km/h 55% 0.00 mm 484.30 W/m2
14:49 36.0 °C 25.0 °C 1006.4 hPa SE 27 km/h 28 km/h 54% 0.00 mm 475.66 W/m2
14:54 36.0 °C 25.0 °C 1006.4 hPa SE 29 km/h 36 km/h 54% 0.00 mm 474.24 W/m2
14:59 36.0 °C 25.0 °C 1006.8 hPa SE 30 km/h 36 km/h 54% 0.00 mm 467.10 W/m2
15:04 36.0 °C 25.0 °C 1006.4 hPa SE 31 km/h 36 km/h 54% 0.00 mm 464.53 W/m2
15:09 36.0 °C 25.0 °C 1006.4 hPa SE 31 km/h 40 km/h 54% 0.00 mm 458.27 W/m2
15:14 37.0 °C 25.0 °C 1006.4 hPa SE 15 km/h 24 km/h 53% 0.00 mm 457.83 W/m2
15:19 36.0 °C 25.0 °C 1006.8 hPa SE 26 km/h 32 km/h 54% 0.00 mm 457.39 W/m2
15:24 36.0 °C 25.0 °C 1006.8 hPa SE 22 km/h 28 km/h 55% 0.00 mm 434.44 W/m2
15:29 36.0 °C 25.0 °C 1006.4 hPa SE 22 km/h 32 km/h 54% 0.00 mm 431.11 W/m2
15:34 36.0 °C 25.0 °C 1006.4 hPa SE 24 km/h 28 km/h 55% 0.00 mm 428.49 W/m2
15:39 36.0 °C 25.0 °C 1006.4 hPa SE 22 km/h 28 km/h 55% 0.00 mm 419.49 W/m2
15:44 35.0 °C 25.0 °C 1006.4 hPa SE 21 km/h 28 km/h 55% 0.00 mm 406.52 W/m2
15:49 36.0 °C 25.0 °C 1006.4 hPa SE 22 km/h 28 km/h 55% 0.00 mm 400.62 W/m2
15:54 36.0 °C 25.0 °C 1006.4 hPa SE 26 km/h 32 km/h 56% 0.00 mm 393.94 W/m2
15:59 35.0 °C 25.0 °C 1006.4 hPa SE 24 km/h 32 km/h 56% 0.00 mm 376.50 W/m2
16:04 35.0 °C 25.0 °C 1006.4 hPa SE 24 km/h 28 km/h 57% 0.00 mm 370.72 W/m2
16:09 35.0 °C 25.0 °C 1006.4 hPa SE 23 km/h 28 km/h 57% 0.00 mm 368.30 W/m2
16:14 36.0 °C 25.0 °C 1006.4 hPa SE 20 km/h 24 km/h 57% 0.00 mm 351.52 W/m2
16:19 36.0 °C 25.0 °C 1006.4 hPa SE 20 km/h 24 km/h 56% 0.00 mm 351.71 W/m2
16:24 36.0 °C 26.0 °C 1006.4 hPa SE 15 km/h 20 km/h 56% 0.00 mm 329.59 W/m2
16:29 36.0 °C 25.0 °C 1006.4 hPa SE 25 km/h 28 km/h 56% 0.00 mm 324.04 W/m2
16:34 36.0 °C 26.0 °C 1006.8 hPa ESE 23 km/h 32 km/h 55% 0.00 mm 314.82 W/m2
16:39 36.0 °C 25.0 °C 1006.4 hPa ESE 19 km/h 24 km/h 56% 0.00 mm 298.54 W/m2
16:44 36.0 °C 26.0 °C 1006.8 hPa ESE 14 km/h 16 km/h 55% 0.00 mm 284.62 W/m2
16:49 36.0 °C 25.0 °C 1006.8 hPa SE 25 km/h 28 km/h 57% 0.00 mm 274.35 W/m2
16:54 35.0 °C 25.0 °C 1006.8 hPa ESE 17 km/h 20 km/h 57% 0.00 mm 251.98 W/m2
16:59 35.0 °C 25.0 °C 1006.8 hPa ESE 13 km/h 16 km/h 56% 0.00 mm 231.16 W/m2
17:04 35.0 °C 25.0 °C 1006.8 hPa ESE 17 km/h 24 km/h 57% 0.00 mm 212.05 W/m2
17:09 35.0 °C 25.0 °C 1007.1 hPa SE 22 km/h 28 km/h 58% 0.00 mm 192.38 W/m2
17:14 34.0 °C 25.0 °C 1007.1 hPa SE 18 km/h 20 km/h 59% 0.00 mm 88.22 W/m2
17:19 34.0 °C 25.0 °C 1007.1 hPa SE 17 km/h 20 km/h 59% 0.00 mm 83.26 W/m2
17:24 34.0 °C 25.0 °C 1007.1 hPa East 14 km/h 20 km/h 58% 0.00 mm 71.91 W/m2
17:29 34.0 °C 25.0 °C 1007.1 hPa SE 15 km/h 20 km/h 58% 0.00 mm 63.68 W/m2
17:34 34.0 °C 25.0 °C 1007.1 hPa ESE 10 km/h 12 km/h 58% 0.00 mm 55.94 W/m2
17:39 34.0 °C 25.0 °C 1007.5 hPa SE 10 km/h 16 km/h 58% 0.00 mm 46.59 W/m2
17:44 34.0 °C 25.0 °C 1007.1 hPa SE 12 km/h 16 km/h 59% 0.00 mm 37.13 W/m2
17:49 34.0 °C 25.0 °C 1007.5 hPa ESE 13 km/h 16 km/h 59% 0.00 mm 32.08 W/m2
17:54 34.0 °C 25.0 °C 1007.1 hPa ESE 18 km/h 24 km/h 59% 0.00 mm 26.24 W/m2
17:59 34.0 °C 25.0 °C 1007.5 hPa ESE 12 km/h 16 km/h 59% 0.00 mm 19.70 W/m2
18:04 34.0 °C 25.0 °C 1007.5 hPa SE 17 km/h 24 km/h 60% 0.00 mm 11.79 W/m2
18:09 34.0 °C 25.0 °C 1007.5 hPa ESE 13 km/h 20 km/h 60% 0.00 mm 6.34 W/m2
18:14 34.0 °C 25.0 °C 1007.5 hPa ESE 8 km/h 12 km/h 60% 0.00 mm 2.55 W/m2
18:19 34.0 °C 25.0 °C 1007.5 hPa ESE 10 km/h 12 km/h 60% 0.00 mm 0.00 W/m2
18:24 33.0 °C 25.0 °C 1007.8 hPa ESE 12 km/h 16 km/h 60% 0.00 mm 0.00 W/m2
18:29 33.0 °C 25.0 °C 1008.1 hPa ESE 9 km/h 12 km/h 61% 0.00 mm 0.00 W/m2
18:34 33.0 °C 25.0 °C 1008.1 hPa ESE 10 km/h 12 km/h 61% 0.00 mm 0.00 W/m2
18:39 33.0 °C 25.0 °C 1008.1 hPa East 11 km/h 12 km/h 61% 0.00 mm 0.00 W/m2
18:44 33.0 °C 25.0 °C 1008.1 hPa SE 10 km/h 12 km/h 61% 0.00 mm 0.00 W/m2
18:49 33.0 °C 25.0 °C 1008.5 hPa ESE 13 km/h 16 km/h 61% 0.00 mm 0.00 W/m2
18:54 33.0 °C 24.0 °C 1008.1 hPa ESE 5 km/h 8 km/h 61% 0.00 mm 0.00 W/m2
18:59 33.0 °C 24.0 °C 1008.1 hPa ESE 8 km/h 12 km/h 61% 0.00 mm 0.00 W/m2
19:04 33.0 °C 25.0 °C 1008.5 hPa ESE 11 km/h 20 km/h 62% 0.00 mm 0.00 W/m2
19:09 33.0 °C 25.0 °C 1008.5 hPa ESE 14 km/h 20 km/h 62% 0.00 mm 0.00 W/m2
19:14 33.0 °C 24.0 °C 1008.5 hPa ESE 9 km/h 16 km/h 62% 0.00 mm 0.00 W/m2
19:19 33.0 °C 25.0 °C 1008.5 hPa ESE 10 km/h 12 km/h 63% 0.00 mm 0.00 W/m2
19:24 33.0 °C 25.0 °C 1008.5 hPa SE 14 km/h 16 km/h 63% 0.00 mm 0.00 W/m2
19:29 32.0 °C 25.0 °C 1008.5 hPa SE 10 km/h 12 km/h 64% 0.00 mm 0.00 W/m2
19:34 32.0 °C 25.0 °C 1008.5 hPa ESE 10 km/h 12 km/h 64% 0.00 mm 0.00 W/m2
19:39 32.0 °C 25.0 °C 1008.8 hPa SE 12 km/h 16 km/h 64% 0.00 mm 0.00 W/m2
19:44 32.0 °C 25.0 °C 1008.8 hPa SE 7 km/h 8 km/h 65% 0.00 mm 0.00 W/m2
19:49 32.0 °C 25.0 °C 1008.5 hPa SE 8 km/h 12 km/h 65% 0.00 mm 0.00 W/m2
19:54 32.0 °C 25.0 °C 1008.8 hPa East 12 km/h 16 km/h 65% 0.00 mm 0.00 W/m2
19:59 32.0 °C 25.0 °C 1008.8 hPa SE 12 km/h 16 km/h 66% 0.00 mm 0.00 W/m2
20:04 32.0 °C 25.0 °C 1008.8 hPa SE 10 km/h 12 km/h 66% 0.00 mm 0.00 W/m2
20:09 32.0 °C 25.0 °C 1009.1 hPa SE 13 km/h 16 km/h 66% 0.00 mm 0.00 W/m2
20:14 32.0 °C 25.0 °C 1008.8 hPa SE 13 km/h 16 km/h 67% 0.00 mm 0.00 W/m2
20:19 32.0 °C 24.0 °C 1009.1 hPa ESE 10 km/h 16 km/h 66% 0.00 mm 0.00 W/m2
20:24 32.0 °C 24.0 °C 1009.1 hPa ESE 8 km/h 12 km/h 66% 0.00 mm 0.00 W/m2
20:29 32.0 °C 25.0 °C 1009.1 hPa SE 9 km/h 12 km/h 67% 0.00 mm 0.00 W/m2
20:34 32.0 °C 25.0 °C 1009.1 hPa East 8 km/h 12 km/h 67% 0.00 mm 0.00 W/m2
20:39 32.0 °C 25.0 °C 1009.1 hPa SE 9 km/h 12 km/h 67% 0.00 mm 0.00 W/m2
20:44 31.0 °C 25.0 °C 1009.1 hPa SE 11 km/h 16 km/h 67% 0.00 mm 0.00 W/m2
20:49 31.0 °C 25.0 °C 1009.1 hPa SE 14 km/h 16 km/h 68% 0.00 mm 0.00 W/m2
20:54 31.0 °C 25.0 °C 1009.5 hPa SE 12 km/h 16 km/h 69% 0.00 mm 0.00 W/m2
20:59 31.0 °C 25.0 °C 1009.5 hPa SE 13 km/h 16 km/h 70% 0.00 mm 0.00 W/m2
21:04 31.0 °C 25.0 °C 1009.5 hPa SE 13 km/h 16 km/h 70% 0.00 mm 0.00 W/m2
21:09 31.0 °C 25.0 °C 1009.8 hPa SE 14 km/h 20 km/h 70% 0.00 mm 0.00 W/m2
21:14 31.0 °C 25.0 °C 1009.5 hPa SE 14 km/h 16 km/h 70% 0.00 mm 0.00 W/m2
21:19 31.0 °C 25.0 °C 1009.5 hPa ESE 12 km/h 16 km/h 71% 0.00 mm 0.00 W/m2
21:24 31.0 °C 25.0 °C 1009.8 hPa ESE 17 km/h 20 km/h 71% 0.00 mm 0.00 W/m2
21:29 31.0 °C 25.0 °C 1010.2 hPa ESE 13 km/h 16 km/h 71% 0.00 mm 0.00 W/m2
21:34 31.0 °C 25.0 °C 1009.8 hPa ESE 12 km/h 12 km/h 71% 0.00 mm 0.00 W/m2
21:39 31.0 °C 25.0 °C 1009.8 hPa SE 14 km/h 16 km/h 71% 0.00 mm 0.00 W/m2
21:44 31.0 °C 25.0 °C 1010.2 hPa SE 11 km/h 12 km/h 71% 0.00 mm 0.00 W/m2
21:49 31.0 °C 25.0 °C 1010.2 hPa SE 12 km/h 16 km/h 72% 0.00 mm 0.00 W/m2
21:54 31.0 °C 25.0 °C 1010.2 hPa ESE 12 km/h 16 km/h 72% 0.00 mm 0.00 W/m2
21:59 30.0 °C 25.0 °C 1010.2 hPa ESE 12 km/h 12 km/h 72% 0.00 mm 0.00 W/m2
22:04 30.0 °C 25.0 °C 1010.2 hPa ESE 11 km/h 16 km/h 72% 0.00 mm 0.00 W/m2
22:09 30.0 °C 25.0 °C 1010.2 hPa ESE 13 km/h 16 km/h 72% 0.00 mm 0.00 W/m2
22:14 30.0 °C 25.0 °C 1010.2 hPa East 11 km/h 16 km/h 72% 0.00 mm 0.00 W/m2
22:19 30.0 °C 25.0 °C 1010.2 hPa ESE 10 km/h 12 km/h 72% 0.00 mm 0.00 W/m2
22:24 30.0 °C 25.0 °C 1010.2 hPa ESE 7 km/h 12 km/h 72% 0.00 mm 0.00 W/m2
22:29 30.0 °C 25.0 °C 1010.2 hPa ESE 14 km/h 20 km/h 72% 0.00 mm 0.00 W/m2
22:34 30.0 °C 25.0 °C 1010.2 hPa ESE 11 km/h 16 km/h 72% 0.00 mm 0.00 W/m2
22:39 30.0 °C 25.0 °C 1010.2 hPa ESE 14 km/h 16 km/h 72% 0.00 mm 0.00 W/m2
22:44 30.0 °C 25.0 °C 1010.2 hPa ESE 13 km/h 16 km/h 72% 0.00 mm 0.00 W/m2
22:49 30.0 °C 25.0 °C 1009.8 hPa SE 8 km/h 12 km/h 71% 0.00 mm 0.00 W/m2
22:54 30.0 °C 25.0 °C 1009.8 hPa ESE 5 km/h 8 km/h 71% 0.00 mm 0.00 W/m2
22:59 30.0 °C 25.0 °C 1009.8 hPa East 8 km/h 8 km/h 71% 0.00 mm 0.00 W/m2
23:04 30.0 °C 24.0 °C 1009.8 hPa SE 6 km/h 8 km/h 70% 0.00 mm 0.00 W/m2
23:09 30.0 °C 24.0 °C 1009.8 hPa ENE 4 km/h 8 km/h 70% 0.00 mm 0.00 W/m2
23:14 30.0 °C 24.0 °C 1009.8 hPa ESE 4 km/h 8 km/h 70% 0.00 mm 0.00 W/m2
23:19 30.0 °C 24.0 °C 1009.8 hPa SW 2 km/h 4 km/h 70% 0.00 mm 0.00 W/m2
23:24 30.0 °C 24.0 °C 1009.5 hPa North 5 km/h 8 km/h 70% 0.00 mm 0.00 W/m2
23:29 30.0 °C 24.0 °C 1009.8 hPa East 3 km/h 8 km/h 69% 0.00 mm 0.00 W/m2
23:34 30.0 °C 24.0 °C 1009.5 hPa ENE 4 km/h 4 km/h 69% 0.00 mm 0.00 W/m2
23:39 30.0 °C 24.0 °C 1009.8 hPa ESE 3 km/h 8 km/h 69% 0.00 mm 0.00 W/m2
23:44 30.0 °C 24.0 °C 1009.5 hPa East 5 km/h 8 km/h 69% 0.00 mm 0.00 W/m2
23:49 30.0 °C 24.0 °C 1009.8 hPa East 4 km/h 8 km/h 69% 0.00 mm 0.00 W/m2
23:54 30.0 °C 24.0 °C 1009.5 hPa NE 5 km/h 8 km/h 69% 0.00 mm 0.00 W/m2
23:59 30.0 °C 24.0 °C 1009.5 hPa NE 1 km/h 4 km/h 69% 0.00 mm 0.00 W/m2
PIMOHWEATHER Philippines
Compliments of Weather Underground - 2 mb